Regional Weather Roundup
Issued by NWS Sioux Falls, SD

Home | Current Version | Previous Version | Graphics & Text | Print | Product List | Glossary On
Versions: 1 2 3 4 5 6 7 8 9 10 11 12 13 14 15 16 17 18 19 20 21 22 23 24 25 26 27 28 29 30 31 32 33 34 35 36 37 38 39 40 41 42 43 44 45 46 47 48 49 50
000
ASUS43 KFSD 250202
RWRFSD

WEATHER ROUNDUP FOR SE SOUTH DAKOTA/SW MINNESOTA/NW IOWA
NATIONAL WEATHER SERVICE SIOUX FALLS SD
900 PM CDT SUN JUL 24 2016

NOTE: "FAIR" INDICATES FEW OR NO CLOUDS BELOW 12,000 FEET WITH NO
SIGNIFICANT WEATHER AND OR OBSTRUCTIONS TO VISIBILITY.


SDZ038>040-050-052>070-250300-
SOUTHEAST SOUTH DAKOTA

CITY           SKY/WX    TMP DP  RH WIND       PRES   REMARKS
BROOKINGS      CLEAR     73  65  75 W6        30.04R
CHAMBERLAIN    CLEAR     74  60  61 S5        30.06R
HURON          CLEAR     75  63  66 CALM      30.03R
MADISON        FAIR      72  64  78 W3        30.06R
MITCHELL       CLEAR     75  60  59 CALM      30.05R
SIOUX FALLS    PTCLDY    73  64  73 W3        30.05R
WINNER         FAIR      79  51  37 E7        30.08R
YANKTON        CLEAR     73  61  64 CALM      30.05R
$$

MNZ071-072-080-081-089-090-097-098-250300-
SOUTHWEST MINNESOTA

CITY           SKY/WX    TMP DP  RH WIND       PRES   REMARKS
FAIRMONT       PTCLDY    72  54  53 CALM      29.99S
JACKSON        CLEAR     70  64  83 W6        30.03S
LUVERNE        CLEAR     70  63  78 W5        30.05R
MARSHALL       CLEAR     72  66  81 W7        30.01R
MONTEVIDEO     CLEAR     73  61  64 N5        30.01S
REDWOOD FALLS  CLEAR     73  63  70 W7        29.98S
TRACY          CLEAR     73  65  76 CALM      30.02R
WINDOM         CLEAR     72  64  78 W3        30.02S
WORTHINGTON    CLEAR     70  64  81 W6        30.04S
$$

IAZ001>003-012>014-020>022-031-032-NEZ013-014-SDZ071-250300-
NORTHWEST IOWA

CITY           SKY/WX    TMP DP  RH WIND       PRES   REMARKS
CHEROKEE       CLOUDY    71  66  83 N3        30.04R
ESTHERVILLE    PTCLDY    70  66  87 W6        30.01S
LE MARS        CLEAR     73  66  78 CALM      30.06R
SHELDON        CLOUDY    70  66  88 W5        30.04R
SIOUX CITY     CLOUDY    75  63  66 NW3       30.04R
SPENCER        PTCLDY    68  65  90 W7        30.04R
STORM LAKE     CLOUDY    70  66  88 NW6       30.05R
$$

ABBREVIATIONS USED IN REMARKS
   TC - TEMPERATURE IN CELSIUS
  WCI - WIND CHILL INDEX
   HX - HEAT INDEX
  VSB - VISIBILITY





USA.gov is the U.S. government's official web portal to all federal, state and local government web resources and services.